Vốn hóa: $2,693,694,470,375 Khối lượng (24h): $150,142,505,844 Tiền ảo: 37,474 Sàn giao dịch: 940 Thị phần: BTC: 60.4%, ETH: 10.5%
ToobitToobit
Xếp hạng #55 12:40:00 07/05/2026

Khối lượng giao dịch (24h) tại Toobit

$17,559,567,866 14.09%
Cặp giao dịch 1,109 cặp Số coin niêm yết 724 Tiền pháp định 37 đồng
Khối lượng 24 giờ $17,559,567,866 +14.09% Khối lượng 7 ngày $118,169,359,136 -4.84% Khối lượng 30 ngày $536,526,123,892 +25.94%
Khối lượng giao ngay (24h) $2,130,252,682 Khối lượng phái sinh (24h) $15,429,315,184 Điểm thanh khoản -

Các cặp đang giao dịch Giao ngay tại Toobit

#TiềnCặpGiá (USD)Khối lượng (24h)Cập nhật
201 Vine Coin Vine Coin VINE VINE/USDT $0.01666 $320,968 12:57:09 07/05/2026
202 Zebec Network Zebec Network ZBCN ZBCN/USDT $0.003348 $305,977 12:57:09 07/05/2026
203 aixbt aixbt AIXBT AIXBT/USDT $0.03449 $305,352 12:57:09 07/05/2026
204 Sky Sky SKY SKY/USDT $0.07983 $305,092 12:57:09 07/05/2026
205 S.S. Lazio Fan Token S.S. Lazio Fan Token LAZIO LAZIO/USDT $0.6339 $303,709 12:57:09 07/05/2026
206 Humidifi Humidifi WET WET/USDT $0.09475 $302,098 12:57:09 07/05/2026
207 Dusk Dusk DUSK DUSK/USDT $0.1438 $299,263 12:57:09 07/05/2026
208 Huma Finance Huma Finance HUMA HUMA/USDT $0.01899 $299,049 12:57:09 07/05/2026
209 Drift Drift DRIFT DRIFT/USDT $0.03544 $297,075 12:57:09 07/05/2026
210 Velvet Velvet VELVET VELVET/USDT $0.09157 $296,565 12:57:09 07/05/2026
211 MyShell MyShell SHELL SHELL/USDT $0.03709 $294,915 12:57:09 07/05/2026
212 Flux Flux FLUX FLUX/USDT $0.07379 $291,025 12:57:09 07/05/2026
213 Phala Network Phala Network PHA PHA/USDT $0.03439 $288,141 12:57:09 07/05/2026
214 Zerebro Zerebro ZEREBRO ZEREBRO/USDT $0.03290 $285,335 12:57:09 07/05/2026
215 SATS (Ordinals) SATS (Ordinals) SATS SATS/USDT $0.00000002000 $283,558 12:57:09 07/05/2026
216 MEET48 MEET48 IDOL IDOL/USDT $0.02576 $282,762 12:57:09 07/05/2026
217 Atletico De Madrid Fan Token Atletico De Madrid Fan Token ATM ATM/USDT $1.07 $282,036 12:57:09 07/05/2026
218 Illuvium Illuvium ILV ILV/USDT $4.72 $281,700 12:57:09 07/05/2026
219 Aevo Aevo AEVO AEVO/USDT $0.02919 $281,471 12:57:09 07/05/2026
220 Doodles Doodles DOOD DOOD/USDT $0.003241 $281,231 12:57:09 07/05/2026
221 Lombard Lombard BARD BARD/USDT $0.2712 $280,602 12:57:09 07/05/2026
222 Bedrock Bedrock BR BR/USDT $0.1676 $280,415 12:57:09 07/05/2026
223 Mecha Conquest Mecha Conquest MCQ MCQ/USDT $0.001273 $273,169 12:57:09 07/05/2026
224 Wormhole Wormhole W W/USDT $0.01370 $273,139 12:57:09 07/05/2026
225 Moo Deng (moodengsol.com) Moo Deng (moodengsol.com) MOODENG MOODENG/USDT $0.06375 $272,371 12:57:09 07/05/2026
226 Banana For Scale Banana For Scale BANANAS31 BANANAS31/USDT $0.01137 $260,517 12:57:09 07/05/2026
227 Naoris Protocol Naoris Protocol NAORIS NAORIS/USDT $0.1502 $259,787 12:57:09 07/05/2026
228 Liquity Liquity LQTY LQTY/USDT $0.3329 $254,579 12:57:09 07/05/2026
229 Magic Eden Magic Eden ME ME/USDT $0.1095 $248,662 12:57:09 07/05/2026
230 Recall Recall RECALL RECALL/USDT $0.05126 $247,566 12:57:09 07/05/2026
231 Kamino Kamino KMNO KMNO/USDT $0.02168 $246,161 12:57:09 07/05/2026
232 Fartcoin Fartcoin FARTCOIN FARTCOIN/USDT $0.2563 $245,315 12:57:09 07/05/2026
233 Solayer Solayer LAYER LAYER/USDT $0.08748 $245,226 12:57:09 07/05/2026
234 Tellor Tellor TRB TRB/USDT $20.01 $244,289 12:57:09 07/05/2026
235 Axelar Axelar AXL AXL/USDT $0.07259 $242,799 12:57:09 07/05/2026
236 ARPA ARPA ARPA ARPA/USDT $0.01048 $242,337 12:57:09 07/05/2026
237 Axie Infinity Axie Infinity AXS AXS/USDT $1.37 $242,013 12:57:09 07/05/2026
238 Stargate Finance Stargate Finance STG STG/USDT $0.2547 $240,288 12:57:09 07/05/2026
239 BUILDon BUILDon B B/USDT $0.3420 $239,574 12:57:09 07/05/2026
240 HeyElsa HeyElsa ELSA ELSA/USDT $0.07513 $239,444 12:57:09 07/05/2026
241 Corn Corn CORN CORN/USDT $0.03566 $236,671 12:57:09 07/05/2026
242 B3 (Base) B3 (Base) B3 B3/USDT $0.001610 $236,012 12:57:09 07/05/2026
243 KernelDAO KernelDAO KERNEL KERNEL/USDT $0.06309 $234,493 12:57:09 07/05/2026
244 Mind Network Mind Network FHE FHE/USDT $0.04874 $233,827 12:57:09 07/05/2026
245 Chainbase Chainbase C C/USDT $0.08009 $232,396 12:57:09 07/05/2026
246 Bella Protocol Bella Protocol BEL BEL/USDT $0.1126 $231,440 12:57:09 07/05/2026
247 Tradoor Tradoor TRADOOR TRADOOR/USDT $0.7142 $228,862 12:57:09 07/05/2026
248 zkPass zkPass ZKP ZKP/USDT $0.08548 $226,473 12:57:09 07/05/2026
249 Banana Gun Banana Gun BANANA BANANA/USDT $4.34 $226,095 12:57:09 07/05/2026
250 Pyth Network Pyth Network PYTH PYTH/USDT $0.05119 $224,544 12:57:09 07/05/2026

Kết quả ở bảng trên đang hiển thị trang 5 trên tổng số 12 trang. Hiển thị kết quả từ 201 đến 250.

Trang 5/12

Giới thiệu về sàn Toobit

What Is Toobit?

Toobit is a cryptocurrency centralized exchange (CEX) based in Cayman Islands and licensed under FinCEN. Founded in Oct 2022, it supports spot trading, derivatives, and zero-slippage copy trading. The exchange offers both spot and derivatives trading; this includes margin trading, futures, perpetual swaps, and options.
Toobit's team is distributed across different regions of the world, including Europe, Russia, and East Asia. Committed to providing a secure, efficient, and diverse trading experience for investors, Toobit is friendly for beginners and advantageous for experienced traders. The exchange offers a range of products and services to meet the diverse needs of different types of traders.

Toobit prioritizes user asset safety through its proprietary Bee-Safe security system, a multi-layered infrastructure designed to defend against both external attacks and internal vulnerabilities. A cornerstone of this protection is the storage of over 95% of user assets in air-gapped cold wallets, which are kept entirely offline and require multi-signature approvals for any movement of funds.

Toobit also employs AI-driven real-time monitoring to detect phishing attempts, anomalies in smart contracts, and suspicious on-chain transactions. Beyond technical barriers like AES-256 encryption and mandatory Two-Factor Authentication (2FA), the exchange has achieved the ISO/IEC 27001 certification for information security, bringing it to an AAA ranking on cybersecurity ranking and certification platform CER.LIVE.

On top of Toobit’s already robust security features, ancilliary measures, such as its Proof of Reserves (PoR), provide an additional layer of trust for users concerned about the safety of their assets. The exchange's PoR is was last reported as being valued over $80m. The exchange also provides a Shield Fund of over $45m as an additional safeguard against potential risks that may affect trading, staking, or holding assets on the exchange.

The platform supports over 15 networks, including multiple popular cryptocurrencies such as Bitcoin, Ethereum, Litecoin, BNB chain, and Base. To ensure seamless integration with the platform, Toobit's API services enables users to automate trading with their own software.

The exchange's proprietary trading app is currently available on the App Store and Google Play. The app has more than 500,000 downloads and currently has a 4.9 star rating on Google Play.

When Did Toobit Launch?

Toobit was launched in October 2022.

Where Is Toobit Located?

Registered in the Cayman Islands, Toobit operates in a decentralized manner.

Toobit Restricted Countries

Toobit provides services to customers in over 100 countries, except for countries with service restrictions such as Iraq, Congo, Mainland China, etc.

What Coins Are Supported on Toobit?

Toobit has over 650 crypto tokens listed, including major coins like BTC, ETH, SOL, MATIC, APE, LTC, DOGE, AVAX, DOT, SHIB, and more.

How Much Are Toobit Fees?

Toobit charges a tiered fee structure based on a maker-taker model. Tier levels include non-VIP, VIP 1, VIP 2, VIP 3, VIP 4, VIP 5, VIP 6. Fees are based on their 30-day trading volumes.

Is It Possible To Use Leverage or Margin Trading on Toobit?

Toobit offers futures trading with leverage up to 200x. Available products include BTC/USDT, ETH/USDT, LPT/USDT, XRP/USDT, and more perpetual contracts.

Tổng quan nhanh về sàn Toobit

Sàn Toobit được xếp hạng thứ #55 trên toàn thế giới xét theo khối lượng giao dịch.

Tổng khối lượng giao dịch trong 24 giờ tại sàn Toobit là $17,559,567,866, khối lượng giao dịch tăng so với ngày hôm qua 14.09%.

Hiện tại, sàn đang niêm yết 724 coin với số cặp tiền ảo đang giao dịch là 1,109 cặp.

Sàn Toobit hỗ trợ các loại giao dịch Giao ngay, Vĩnh cửu.

Sàn cũng có hỗ trợ tiền pháp định với hơn 37 loại tiền tệ khác nhau, giúp dễ dàng hơn trong việc giao dịch tiền ảo.

Sàn Toobit - Khối lượng giao dịch, cặp giao dịch - Danh sách cặp giao dịch Trang 5 - CoinMarket.vn
4.5 trên 1003 đánh giá